TIMESTAMP,CO2_1_1_1,H2O_1_1_1,TAU_1_1_1,TAU_SSITC_TEST_1_1_1,H_1_1_1,H_SSITC_TEST_1_1_1,LE_1_1_1,LE_SSITC_TEST_1_1_1,FC_1_1_1,FC_SSITC_TEST_1_1_1,WD_0_0_1,WS_0_0_1,WS_MAX_0_0_1,U_SIGMA_0_0_1,V_SIGMA_0_0_1,W_SIGMA_0_0_1,USTAR_0_0_1,MO_LENGTH_0_0_1,ZL_0_0_1,FETCH_MAX_0_0_1,FETCH_70_0_0_1,FETCH_80_0_0_1,FETCH_90_0_0_1,PA_0_0_1,RH_0_0_1,TA_0_0_1,VPD_0_0_1,T_SONIC_0_0_1,T_SONIC_SIGMA_0_0_1
[yyyymmddHHMMSS],[mmolCO2 mol-1],[mmolH2O mol-1],[kg m-1 s-2],[#],[W m-2],[#],[W m-2],[#],[umolCO2 m-2 s-1],[#],[Decimal degrees],[m s-1],[m s-1],[m s-1],[m s-1],[m s-1],[m s-1],[m],[#],[m],[m],[m],[m],[kPa],[%],[deg C],[hPa],[deg C],[deg C]
20211212003000,423.77936108591678,3.5994011242776605,0.47409377188564150,0,-70.270434090107614,0,11.717673755830749,0,1.1749801646573883,0,210.08156444221012,3.7799951088663870,9.6080360961520608,1.2831015587166037,1.1218676861660106,0.88477244356425078,0.62855686649397446,291.75080145045069,6.5124071315453960E-002,95.250066925552602,174.14750079065308,208.41008055409429,260.90469001390153,92.759001257378472,74.840344827586208,-4.2151724137930842,1.1227206118713486,-4.9496230706108690,0.19977428331766825
20211212010000,424.12604674298581,3.5772663429179645,0.46255410837417554,0,-66.502661988217838,0,9.9759309013531272,0,1.1907692793484161,0,207.21136365066604,3.5065793362357294,8.6936503017457039,1.3114495437209577,1.0582276299195943,0.82146740501052584,0.62030670390228504,296.39619014022355,6.4103388073278519E-002,100.01561528725384,182.86044308953797,218.83724716934574,273.95826528359368,92.802225204785685,76.414000000000001,-4.5670000000000073,1.0249613894328138,-5.2977544328770136,0.20596398843802233
20211212013000,424.37729196703640,3.5388905050816146,0.47616300588873378,0,-64.378086616448186,0,8.4816143638761243,0,1.0048394175832731,0,199.99441891717126,3.4484537863587370,7.5474581328503234,1.2268547832168797,1.0501330956444828,0.86756103587897337,0.62877684951446533,318.96469400238038,5.9567721309801785E-002,96.785902387813096,176.95549784526273,211.77053585600731,265.11158128576403,92.833174120876734,77.994000000000000,-4.9759999999999991,0.92718568807915291,-5.7108009474012533,0.22156058873643933
20211212020000,424.66042516933663,3.5148682767948860,0.33779731571299088,0,-64.541732599288380,0,5.0351326050835139,0,0.93687704455987142,0,194.46184262944095,3.6168229856055971,8.0054785367717756,1.0959191445485021,1.0584502282470500,0.81009236985835853,0.52917738000582981,189.66323687354296,0.10017755846204479,89.065248486417488,162.83968013724436,194.87750728965699,243.96351412038706,92.842870558810773,79.834999999999994,-5.3720000000000141,0.82447784456744844,-6.0846695649888716,0.20224137466815598
20211212023000,424.91485573633906,3.4328363922512235,0.37348299342722457,0,-65.164135539418126,0,4.5876205915035007,0,0.99824782034535808,0,191.42734119540705,3.5929677756420637,7.9340670647800158,1.1998111760993482,1.0172719225901876,0.79628723409077340,0.55595192664859383,217.85291188010197,8.7214808542274078E-002,93.935313449062519,171.74371211651467,205.53335944734442,257.30337655239549,92.857193681385496,80.443333333333328,-5.7800000000000296,0.77515743065384246,-6.5050976399649016,0.20232706167631112
20211212030000,425.28114728805286,3.3726615232084081,0.54569733158014955,0,-61.853319028321529,0,6.8895880962619360,1,0.53122068182940374,1,189.39215764934346,3.5639395015875808,8.8199467026345317,1.3739595254439254,1.1051549708341935,0.86475616496790009,0.67161475994714992,404.67049445232533,4.6951779930766387E-002,102.29070030968755,187.02002411169880,223.81520328105555,280.19007562969330,92.871840868489585,80.683333333333337,-6.0486666666666906,0.75010428203745683,-6.7724849014281858,0.16166146687253921
20211212033000,425.90467260769196,3.3336915535091376,0.41273274573454699,0,-55.087975348558309,0,3.4412895755489781,0,0.50223904783324280,0,189.18721247448093,3.3884302378292115,7.7978939555236186,1.3209698180002403,1.1851490261371393,0.86260367003826532,0.58389172432058978,298.58148576478311,6.3634220157132729E-002,91.637179690635364,167.54199065394050,200.50497199127852,251.00843214756307,92.878505190104164,80.719999999999999,-6.2056666666666729,0.73974661651607621,-6.9276762661404518,0.17147556327525973
20211212040000,426.64643878850353,3.2721176181360572,0.48771328702599159,0,-63.356954522090781,0,4.4634732968475399,0,0.93398660287832713,0,186.86675316187507,3.3781254143832036,8.4980168481793754,1.3541654721037260,1.1129357785108842,0.85645803694775990,0.63456005982227737,333.19944403482987,5.7022904269954003E-002,98.507254566957499,180.10267862585832,215.53690744919317,269.82663158652082,92.867295601779503,80.183666666666667,-6.3636666666666883,0.75118268914856634,-7.0957341418795750,0.18219657686101767
20211212043000,427.25134802193645,3.2131866263089117,0.38294749182915133,0,-55.317485101388563,0,3.4270055812655387,0,0.58037394693098643,0,186.44994293777995,3.1291352693892298,8.4820164961526583,1.2072096598001392,1.0012558661230535,0.76293617429371008,0.56195172884813072,265.06303453961976,7.1681062706463558E-002,98.044569361902660,179.25674250514055,214.52453796779392,268.55926512794179,92.879114070402395,80.463333333333338,-6.6443333333333499,0.72480793770819507,-7.3750249427307608,0.18742140885274633
20211212050000,427.80347928069955,3.1934728994481296,0.77007541502985966,0,-74.655274407216453,0,3.8732095806857441,0,1.2586889870393156,0,188.98780173330914,3.9899187338935640,10.076932721348147,1.5457853650086297,1.3203243217481877,0.99417150050054637,0.79650948895176621,559.29881331434365,3.3971107300242741E-002,104.86694484390380,191.73022077129801,229.45210568158305,287.24680853598147,92.884897745442714,81.420000000000002,-6.8773333333333539,0.67707913890510274,-7.6348648240830812,0.16542851976065415
20211212053000,428.08648617881147,3.1806661561176721,0.47417083971037877,0,-52.916543581314528,0,1.5311168862526963,0,1.1315576385349568,0,192.97652556501762,4.1308425663425545,9.5145159764549447,1.6168084510565266,1.3421099829905165,0.99153103850898094,0.62468139122136301,380.66926904877442,4.9912093107693352E-002,86.524022960110287,158.19350939284260,189.31722755717394,237.00270370211402,92.895078013436276,82.713333333333338,-7.1326666666666370,0.61767924044134304,-7.9042471568001247,0.14974810293503307
20211212060000,427.65412874490789,3.1645860234746177,0.76300654300493287,0,-62.385237162437285,0,1.3214736798738229,0,1.7356514490105579,0,193.41240460900949,4.2732534565080460,10.535889933642283,1.6298165228356141,1.3881362406582054,1.0485920243466786,0.79211037230709924,658.39142650071039,2.8858212964563108E-002,100.04565223104527,182.91536020258056,218.90296892763135,274.04054112613971,92.909188888671878,83.366666666666674,-7.2983333333333462,0.58678487035157334,-8.0732460725571968,0.14469546656640628
20211212063000,427.24923438154053,3.1362825217850312,0.57036352535626778,0,-46.885592162266811,0,0.17714366418008484,0,1.1377018492655866,0,190.17828345488246,3.8592866101792436,9.7871817327178849,1.5331348626969279,1.2926177609200806,0.95929354744349915,0.68462216554280375,565.50119129203028,3.3598514543514403E-002,95.599241364548803,174.78590302861366,209.17408498272641,261.86113289848538,92.883462124348952,84.209999999999994,-7.5483333333333462,0.54637210023240923,-8.3136228883531658,0.15634798553800383
20211212070000,427.21374310302002,3.1106976138894784,0.53803371077482276,0,-46.781076600739759,0,-0.47744365637714153,0,1.2306312878527030,0,189.15770845629609,3.7931382010517174,8.7241374325575070,1.4987856193553839,1.1826272143234804,0.94882522611849751,0.66454412711216759,518.41154976032078,3.6650418010139518E-002,94.172691110933570,172.17771419013718,206.05274908379431,257.95359074421435,92.900281939670137,85.253333333333330,-7.8106666666666911,0.50000437269462905,-8.5717056978013488,0.14089370831402759
20211212073000,427.19210941043087,3.0903694666886272,0.58554325632147497,0,-52.941188818902866,0,-1.3708321030521124,0,1.2970069200775640,0,187.80766242123948,3.7108974884432060,9.4353797078716308,1.4508412537347173,1.3084514283215958,0.96347688378934737,0.69292238655964511,519.38538536181409,3.6581699322872217E-002,96.189913539775631,175.86584015015637,210.46649389742359,263.47907549686533,92.917793404296873,86.099999999999994,-8.0199999999999818,0.46370034609212324,-8.7734235560099023,0.13612645124354295
20211212080000,427.20415093005766,3.0725950353310019,0.50896197588364678,0,-39.715798638749966,0,-0.44360480168748773,2,0.95676619420350417,0,186.13535148331022,3.8462231394030244,9.2161084204795110,1.3075695398555436,1.2351633629422996,0.92552860899859690,0.64578157331181618,560.50226982970821,3.3898167808977080E-002,93.888314064004874,171.65778225094425,205.43052334505055,257.17463795529932,92.934541934678833,86.613333333333330,-8.1683333333333508,0.44145522662067832,-8.9163980068630622,0.12447749548381767
20211212083000,427.19720183995065,3.0632047064749610,0.50708682071664890,0,-51.459419184454966,0,-2.0650410597811413,1,1.1815064074895696,0,183.16964583919693,3.7392239086757915,8.8022701628241560,1.4155746756962597,1.2411797581126875,0.95113330724306056,0.64456493771047596,430.12929193371207,4.4172764692640649E-002,91.722340808344285,167.69769233785783,200.69130714016262,251.24170164263282,92.928825286675348,86.590000000000003,-8.2049999999999841,0.44096486300973881,-8.9473767589992690,0.13052878764209203
20211212090000,426.87582853161456,3.0711756162284294,0.47828012846241652,0,-61.746531350424029,0,-0.61862477357605927,1,1.2788673025777226,0,178.53235000179407,3.9215236091887551,8.6904986291596789,1.3221639672982259,1.2714259906133487,0.92716701638054577,0.62628960925571553,328.79438119686768,5.7786875587218844E-002,91.484745916678335,167.26329309888837,200.17144219822987,250.59089242475119,92.912679593088470,85.409999999999997,-7.9973333333333585,0.48757641027019305,-8.7101585227948135,0.23604935986005129
20211212093000,426.96541597857572,3.0244205052085267,0.47287899306154635,0,-48.754644178115370,0,1.1950726024119358,1,1.0969500328265769,0,178.72427880176087,3.3562812816828700,8.0714413843266168,1.1726279994199591,1.0809673246866287,0.83037551613490790,0.62251428804336639,408.98463394211285,4.6456513089167151E-002,99.438538034570001,181.80536182228201,217.57458436395603,272.37756128426497,92.932880412794489,85.000000000000000,-8.1299999999999955,0.49613559295318399,-8.8866736712452621,0.16216925588734116
20211212100000,426.83943329094961,3.0148991026971323,0.38981818468355728,0,-48.213980757287196,0,6.0912318098379221E-002,2,1.2070628801475738,0,179.61629743418533,3.9964925969840777,9.3451386160505407,1.3910381850368863,1.1181381488984343,0.87728268171582480,0.56519324116580549,309.50432999763888,6.1388478798163976E-002,88.084769597428632,161.04705202046978,192.73218927748729,241.27783054184687,92.925269820963535,84.930000000000007,-8.1610000000000014,0.49725049122490761,-8.8863355738321843,0.15802562070589896
20211212103000,426.69058520108291,3.0157564914159583,0.55745942020488870,0,-72.572802702562669,0,0.22625725742704239,1,1.6545061629328237,0,178.75333011842520,3.9062074221373413,9.2802856341955238,1.4398781833018128,1.2366422877707295,0.96955040604359666,0.67612053670411609,351.92551022787416,5.3988697743728130E-002,93.846458404398675,171.58125675600616,205.33894187249376,257.05998881911114,92.896197473307282,84.256666666666675,-8.0590000000000259,0.52360418018658494,-8.7979226599799176,0.15899673143190257
20211212110000,426.31008033087363,3.0323730632020895,0.58900844609940362,0,-66.221391618443633,0,1.3406585349032487,0,1.4760687762252094,0,182.83611539094431,4.0446503412271175,9.8281949376330537,1.4875517495106947,1.3008738545095120,0.95606168405393965,0.69542003885138504,419.56993211637882,4.5284465224094864E-002,97.065284061304169,177.46629664861905,212.38183156379012,265.87685097292058,92.868248323195090,83.086666666666673,-7.8120000000000118,0.57340864403358693,-8.5261405910907797,0.18990109953756790
20211212113000,425.99069326123953,3.0300618719184125,0.49532944794532568,0,-62.145514452183235,0,2.4830761079382433,0,1.1759194323752016,0,182.40213707371467,4.2076033367783108,9.7847240016822230,1.4662602042675075,1.2820356639602510,0.99862982833221381,0.63803126655288400,345.24574308036910,5.5033263641362337E-002,87.499353061634380,159.97672388401008,191.45127986376545,239.67428395410758,92.853423940104179,81.653333333333336,-7.5993333333333339,0.63233780972007714,-8.3270183351304468,0.18890183509864925
20211212120000,425.63102291654121,3.0448777615922848,0.63950824385089300,0,-76.264380190036917,0,4.9795700799550309,0,1.4107856584376814,0,180.86389561009111,4.2613805034799652,10.361380158296495,1.5540229253643454,1.2398006579831393,0.96258104290414159,0.72547391432601194,413.46154081440460,4.5953488110587672E-002,99.862514509754249,182.58052603928016,218.50225795199933,273.53889853474260,92.816642980210247,80.356333333333339,-7.3343333333333476,0.69105822863319644,-8.0654243551903733,0.19113408803259194
20211212123000,425.51686547356911,3.0502476475759099,0.84153874047136190,0,-90.675351429966994,0,6.7598076978332031,0,1.6500538220067524,0,186.08343877984223,4.1551300778838751,10.087682247735993,1.5798934939028433,1.3735758531342528,1.0677055216309950,0.83253842661830113,525.52420167956768,3.6154376790405229E-002,102.61648614541610,187.61566452347370,224.52803272526623,281.08245350642608,92.809615234157988,79.346666666666664,-7.1486666666666565,0.73706539184952191,-7.8770396033392558,0.18713433986332462
20211212130000,425.41489717681679,3.0550486470915699,0.71522822043834777,0,-78.661834785251244,0,5.7249398674591552,0,1.2089101580113037,0,188.85854722061600,4.4346991923104628,11.218640081557565,1.6348368549763632,1.4359050290920827,1.0873086083601771,0.76781249225789394,475.20702261932615,3.9982574111116033E-002,94.793111254004586,173.31204008452679,207.41024746850280,259.65301763525099,92.812935305989583,78.186666666666667,-6.9366666666666674,0.79128412892005029,-7.6756440904405281,0.21936943188085531
20211212133000,425.35860719232284,3.0977588316520808,0.71938657194978195,0,-85.264052683458644,0,5.6136056942046020,0,1.5346470414801165,0,188.17288764642814,4.1506535805517082,11.594305370692206,1.7014146108584383,1.3629295166442832,1.0304406516416496,0.77025003381401935,442.61027021289465,4.2927155736492598E-002,99.206903356600137,181.38185975486167,217.06776055319114,271.74307801508854,92.815128410642089,78.394000000000005,-6.7903333333333080,0.79263710757343975,-7.5212273793073336,0.22351639676653656
20211212140000,425.22884977008135,3.1785338057635508,0.72418702913147692,0,-64.419250260236680,0,1.3827707977361841,2,1.1579684838263475,0,185.55624517670648,4.3012502257936962,9.9956506131717013,1.5321105577975380,1.4059747667617954,1.0241356686146219,0.77306503046657693,592.36426511012451,3.2074858527240450E-002,99.986583494129079,182.80736371249040,218.77372471168187,273.87874270444757,92.832395502604172,79.145333333333340,-6.5769999999999982,0.77771560199577838,-7.3414925079345608,0.14908767498167363
20211212143000,425.15121561947279,3.2865816509318075,0.70080179681595456,0,-51.168212258862113,0,-1.3438577840928279,2,1.2129740726734350,0,181.30422531091230,4.5015955846217377,10.884338764788479,1.6291475509480020,1.4998400472593512,1.1259270116911966,0.76085700499805753,711.05174958121461,2.6720980591342834E-002,91.514338312574210,167.31739743659662,200.23619127202602,250.67195058173934,92.840553312934034,80.127333333333340,-6.3006666666666433,0.75696201033848698,-7.0981744418673998,0.18659973351973955
20211212150000,424.66127549926290,3.4385166179401652,0.87208351232594938,0,-6.0623226798285001,2,9.8734656471891977,0,0.75761566436229144,1,181.23294627945401,4.4086017049066282,11.364060478883980,1.8120494865906887,1.5724050224188066,1.1895264013730242,0.84984283937493055,8364.9225194813662,2.2713898372340238E-003,95.681180937102951,174.93571470052896,209.35337129157412,262.08557808227539,92.864225049045146,79.279666666666671,-5.5660000000000309,0.83477794809976957,-6.3518711123996354,0.29927932818803660
20211212153000,424.08220569697937,3.5688882748583843,0.83962906842531215,0,-13.671155431588813,1,12.128918567484625,0,1.2736281643137803,0,178.95375597645520,4.2509784409923173,12.595260380182157,1.9539465949562027,1.7178968086754713,1.1640252256105024,0.83554111231644268,3525.2106786525228,5.3897487929040781E-003,96.041568777541315,175.59461861265675,210.14191098798378,263.07273621065588,92.860593716145829,76.026333333333326,-4.5223333333333358,1.0453249224113581,-5.3833924594455880,0.33356188518031354
20211212160000,423.77090667234825,3.6688420424659114,0.96683108466192247,0,22.157428129744588,0,25.331253926263482,0,1.5167843378300345,0,180.85345872187062,4.0570272169530908,11.850391404895360,2.0056451594838491,1.6590902628461468,1.2393888897582042,0.89805322735114657,-2701.1420219249057,-7.0340618322838480E-003,96.767714362598156,176.92224433439671,211.73073989656586,265.06176146690370,92.879264603081594,72.978666666666669,-3.6076666666666597,1.2620457886933332,-4.5471103388467782,0.23915600531331599
20211212163000,423.50866862225774,3.7869093520040811,0.78623036965371929,0,23.695465635356999,0,22.744871167905718,0,1.2050098887735561,0,186.37217407839302,4.0504965824674013,11.022071478439944,1.7491647829131640,1.6251277015688370,1.1395023195567731,0.81112150272487504,-1861.1974833088800,-1.0208481459055790E-002,95.400677887174865,174.42286566340110,208.73962197760383,261.31723677132760,92.887309742608750,70.642333333333326,-2.7456666666666933,1.4622252291812856,-3.7223703321845960,0.27886756602990492
20211212170000,423.46624829808741,3.8634588131515000,0.76489187083252075,0,41.178371003326532,0,34.488389475835717,0,1.6095425630066533,0,180.47946731159047,4.4204560282534890,11.101318585633202,1.7948736010360766,1.5779803785507185,1.1588561282804093,0.80111809849934945,-1031.7291104541052,-1.8415686644372514E-002,93.194121115872221,170.38857614027256,203.91160779034033,255.27313592187872,92.868270488498268,68.581666666666663,-2.0790000000000077,1.6441265085849210,-3.0953069797092212,0.18278179120278634
20211212173000,423.17024959991386,4.0280781500643048,0.99748988563166485,0,57.511046076605012,0,47.471718309596916,0,1.8665601607577951,0,183.74841159712003,4.0585057536315299,12.409810668612234,1.9535168390467406,1.7908938933913878,1.2581341171217266,0.91664376377198886,-1106.1684001863428,-1.7176408218494851E-002,97.192738466518051,177.69932395084766,212.66070572855432,266.22596833479315,92.811174853515624,66.982333333333330,-1.2003333333333330,1.8433200372471903,-2.2116383243136966,0.34155460887331335
20211212180000,422.56895973135556,4.1503442206967840,0.63599828658856195,0,53.064824750252896,0,41.560476035993709,0,1.5505441291483979,0,191.24169347853751,3.6808410062843593,10.358689466241932,1.5012782181793947,1.3803467945205905,1.0669743441734436,0.73354661715502667,-614.62091541456164,-3.0913363869474741E-002,92.784171319842201,169.63905716634821,203.01462500836990,254.15021991870077,92.854329106336806,62.747666666666667,0.11066666666664560,2.2885407660922277,-0.89286754184286110,0.36506337924042848
20211212183000,421.69704571439087,4.1435170110045059,1.3569602492068933,0,42.789528015511230,0,77.615440798051807,0,2.6206872047291925,0,200.41046034284130,4.5922930635316481,12.542697753381722,2.1843035747991939,1.6681559179930374,1.3156454856992275,1.0737168516462821,-2390.4497046742426,-7.9482952361841115E-003,106.42792902327322,194.58419770155473,232.86758715122153,291.52258604019369,92.857444091579865,57.640000000000001,1.2636666666666656,2.8283575487738908,0.17421819898822832,0.21325047782763462
20211212190000,421.33301545467378,4.1791662266143605,1.2481234287090763,0,18.000854663604027,0,67.380837970671706,0,2.5113701668687147,0,198.88239368845794,4.7908772265357920,13.047890501358090,2.3018669129593405,1.7285443252447910,1.3293706996567851,1.0311935786091382,-5033.0728455793669,-3.7750298044440232E-003,102.19041853563375,186.83667704549703,223.59578367030613,279.91538831431325,92.842757762586800,55.207999999999998,1.9823333333333153,3.1488545252903779,0.84145473734542975,0.24000970678831801
20211212193000,421.05264280251959,4.1992496850838590,1.0981713667894881,0,28.827834220832422,0,66.788375190091614,0,2.0005396194703446,0,197.47315934158331,4.5392796065100294,12.091381693151311,2.0645610651856479,1.7572804950982355,1.2740205872751202,0.96848860250831170,-2603.6680917547774,-7.2973971068619166E-003,100.55168538825676,183.84055020496095,220.01018506365693,275.42664434139743,92.843495210573295,52.791666666666664,2.6776666666666529,3.4873292642508522,1.5418806349588294,0.21523700973764870
20211212200000,421.30303512160185,4.3251852160890429,0.70806310746037848,0,-5.1645012191860014,2,46.754578067861218,0,1.7454653198662349,0,189.82618383911233,3.1701578895895919,9.3528719226969592,1.4339653575005737,1.3358202111232680,0.98790869058863451,0.77806409834646584,7536.1297094063566,2.5211880278924615E-003,103.44124910471906,189.12359425773386,226.33263948654766,283.34160702912197,92.845285238715277,53.337333333333333,2.9493333333333567,3.5141419409418644,1.8314289957681922,0.23546947334403462
20211212203000,421.01720773905924,4.3282567852483096,0.59955373228994280,0,-7.3095298440431833,0,45.742586759256895,0,1.8980347006995806,0,191.00391177580576,3.3998053367177010,9.1499908726204193,1.5125006604596687,1.4791418263320677,1.0196548899273543,0.71668435997237456,4161.1868445656501,4.5660050148464901E-003,94.439716875061521,172.66592245046252,206.63700968127421,258.68501568137458,92.841818260850687,51.363999999999997,3.4916666666666742,3.8060294779253123,2.4092173156738568,9.6868543117345191E-002
20211212210000,420.70571759834223,4.2663831756147914,0.46101704534214200,0,-27.553417538749606,0,43.835087091440364,0,1.4410569794762080,0,194.54302131582153,3.5551472693237227,9.5609795340640513,1.5028436542023982,1.3190389990554094,0.95761453844563460,0.62859926981400815,745.02463922520712,2.5502512265579785E-002,89.413153632735387,163.47576170336885,195.63873446680921,244.91648021567872,92.873068728949661,49.835333333333331,3.7206666666666592,3.9895755758957767,2.6154149356418657,0.13934861759840020
20211212213000,420.65716011648942,4.1972596295542361,0.64188127391535277,0,-54.902870106905276,0,45.028083949972540,0,1.6119491054167696,0,186.75451728551423,3.9369575080730610,10.575278875132037,1.6291316121656021,1.3976649871575717,0.99221207339631456,0.74110343179959270,612.85608094364852,3.1002384720968494E-002,99.145807313179560,181.27015670190519,216.93408052816005,271.57572648679849,92.902985287326388,50.331666666666663,3.3533333333333530,3.8490208031524578,2.3729077936808380,0.27215005461219827
20211212220000,420.80024765888078,4.1412814355067313,0.65154737908319027,0,-87.716800325266107,0,52.508226287308965,0,1.7938784144303117,0,187.42928875236200,3.9490291591409652,10.061393498865389,1.6881095356503661,1.3722519933042270,1.0241840804145201,0.74597441101236261,391.30149118665918,4.8555910028302431E-002,97.169871224204698,177.65751533876599,212.61067149796105,266.16333141536819,92.936547236368284,51.119666666666667,2.9493333333333567,3.6811533014376665,2.0763446497988980,0.21634790293048123
20211212223000,421.09022907894951,4.1907177312212616,0.51175471136373429,0,-67.211260820854150,0,29.574312996043627,0,1.0457072656376032,0,184.92302780293247,3.4765751710564836,8.5860980222013854,1.4388055875270007,1.2497529801241509,0.87690113912133905,0.66035634222012818,354.37705205760994,5.3615209815874962E-002,99.796905529079723,182.46057189769596,218.35870348123828,273.35918537214297,92.981513533420141,53.670000000000002,2.4379999999999882,3.3645904279803136,1.6276861826579534,0.25403438677661427